logo
Rechercher aéroport 
image banner adimage banner adimage banner ad
image banner ad

KSMX - Santa Maria Pub/Capt G Allan Hancock Fld

Situé à Santa Maria, United States

ICAO - SMX, IATA - SMX

Données fournies par Airmate  

Information générale

Coordonnées: N34°53'60" W120°27'29"
Élévation : 261 feet MSL.
Variation magnétique : 14° East
Voir autres Aéroports à California

Données opérationnelles

Special qualification required
Heure actuelle UTC:
Heure actuelle locale:
Météo
METAR: KSMX 011751Z VRB03KT 10SM OVC011 17/14 A2990 RMK AO2 SLP127 T01720144 10172 20144 51005
TAF: KSMX 011745Z 0118/0218 08004KT P6SM OVC010 FM012000 30008KT P6SM SCT015 FM020000 31006KT P6SM BKN012 FM020400 VRB03KT 6SM BR OVC007 FM020800 31003KT 4SM BR OVC004
Voir NOTAMs / SUP AIP / TFR affectant cet aéroport [VIEW]
Fréquences de communication: [VIEW]

Pistes:

Identifiant RWYQFULongueur (ft)Largeur (ft)SurfaceLDA (ft)
0236°519975ASPH5199
20216°519975ASPH5199
12135°8004150ASPH8004
30315°8004150ASPH8004

Coordonnées de l'aéroport

Adresse: Santa Maria United States

Vue satellite de KSMX